(488968) = 2005 UY286 = 2010 CU98

Discovered at Kitt Peak on 2005-10-26 by Spacewatch.

Orbit

Orbit type: Main Belt

Note: WebGL enabled browser required.

epoch2023-02-25.0
epoch JD2460000.5
perihelion date2022-10-31.76137
perihelion JD2459884.26137
argument of perihelion (°)260.35379
ascending node (°)145.99899
inclination (°)2.83427
eccentricity0.0880952
perihelion distance (AU)2.0555240
Tisserand w.r.t. Jupiter3.6
ΔV w.r.t. Earth (km/sec)8.9
semimajor axis (AU)2.2540993
mean anomaly (°)33.85282
mean daily motion (°/day)0.29123550
aphelion distance (AU)2.453
period (years)3.38
P-vector [x]0.68954172
P-vector [y]0.68236660
P-vector [z]0.24270979
Q-vector [x]-0.72371792
Q-vector [y]0.63640079
Q-vector [z]0.26688276
absolute magnitude18.61
phase slope0.15
uncertainty0
referenceMPO 745323
observations used122
oppositions9
arc length (days)6258
first opposition used2005
last opposition used2022
residual rms (arc-secs)0.71
perturbers coarse indicatorM-v
perturbers precise indicator003Ek
first observation date used2005-10-26.0
last observation date used2022-12-14.0
computer nameMPCLINUX
JD of orbit computation2457847.204951
perihelion JD uncertainty (days)1.8172E-04
argument of perihelion uncertainty (°)1.4042E-04
ascending node uncertainty (°)1.3033E-04
inclination uncertainty (°)6.8677E-06
eccentricity uncertainty 8.2699E-08
perihelion distance uncertainty (AU)1.9241E-07
Minimum Orbit Intersection Distances (in AU)
for orbit epoch: 2460000.5, reference: E2023-J72
Mercury1.73386
Venus1.33272
Earth1.06544
Mars0.54227
Jupiter2.81885
Saturn6.93642
Uranus16.0777
Neptune27.7759

Observations

131 total observations over interval: 2005 10 26.17519 – 2022 12 14.262005
These data are available for download (format description).

